Weather History for Stanley, ND

Change the Weather History Date:

Friday, November 23, 2012

  Actual Average (KMOT) Record (KMOT)
Temperature  
Mean Temperature 12 °F 24 °F  
Max Temperature 21 °F 32 °F 55 °F (1942)
Min Temperature 3 °F 16 °F -17 °F (2013)
Degree Days  
Heating Degree Days 53 41  
Month to date heating degree days 798  
Since 1 July heating degree days 1758  
Moisture  
Dew Point 8 °F    
Average Humidity 86    
Maximum Humidity 93    
Minimum Humidity 73    
Precipitation  
Precipitation 0.01 in 0.02 in 0.17 in (1996)
Month to date precipitation 0.63  
Year to date precipitation 16.69  
Sea Level Pressure  
Sea Level Pressure 30.36 in    
Wind  
Wind Speed 10 mph (West)    
Max Wind Speed 16 mph    
Max Gust Speed 21 mph    
Visibility 10 miles    
Events Snow    
T = Trace of Precipitation, MM = Missing Value Source: NWS Daily Summary

Daily Weather History Graph

Daily Weather History Graph

Search for Another Location

Airport:

Trip Planner

Search our weather history database for the weather conditions in past years. The results will help you decide how hot, cold, wet, or windy it might be!

Date:

Astronomy

Nov. 23, 2012 Rise Set
Actual Time 8:09 AM CST 5:02 PM CST
Civil Twilight 7:34 AM CST 5:37 PM CST
Nautical Twilight 6:55 AM CST 6:16 PM CST
Astronomical Twilight 6:18 AM CST 6:53 PM CST
Moon 2:34 PM CST (11/23) 3:11 AM CST (11/23)
Length of Visible Light 10h 03m
Length of Day
8h 52m
Waxing Gibbous, 80% of the Moon is Illuminated
Nov 23
Waxing Gibbous
Nov 28
Full
Dec 6
Last Quarter
Dec 13
New
Dec 19
First Quarter

Hourly Weather History & Observations

Time (CST) Temp. Windchill Dew Point Humidity Pressure Visibility Wind Dir Wind Speed Gust Speed Precip Events Conditions
12:15 AM 8.6 °F -7.7 °F 6.8 °F 92% 30.44 in 10.0 mi NW 13.8 mph - N/A Snow Light Snow
12:35 AM 8.6 °F -8.9 °F 6.8 °F 92% 30.44 in 10.0 mi NW 16.1 mph 19.6 mph N/A   Overcast
12:55 AM 8.6 °F -8.3 °F 5.0 °F 85% 30.45 in 10.0 mi NW 15.0 mph 20.7 mph N/A Snow Light Snow
1:15 AM 8.6 °F -5.5 °F 5.0 °F 85% 30.46 in 10.0 mi WNW 10.4 mph - N/A Snow Light Snow
1:35 AM 6.8 °F -8.6 °F 5.0 °F 92% 30.45 in 10.0 mi WNW 11.5 mph 16.1 mph N/A Snow Light Snow
1:55 AM 6.8 °F -10.0 °F 5.0 °F 92% 30.45 in 10.0 mi NW 13.8 mph 19.6 mph 0.01 in Snow Light Snow
2:15 AM 6.8 °F -8.6 °F 5.0 °F 92% 30.45 in 10.0 mi NW 11.5 mph - N/A Snow Light Snow
2:35 AM 6.8 °F -9.3 °F 5.0 °F 92% 30.46 in 10.0 mi WNW 12.7 mph 18.4 mph N/A Snow Light Snow
2:55 AM 6.8 °F -8.6 °F 5.0 °F 92% 30.46 in 10.0 mi NW 11.5 mph 19.6 mph N/A   Overcast
3:15 AM 6.8 °F -8.6 °F 5.0 °F 92% 30.46 in 10.0 mi NW 11.5 mph - N/A Snow Light Snow
3:35 AM 6.8 °F -9.3 °F 5.0 °F 92% 30.47 in 10.0 mi NW 12.7 mph 18.4 mph N/A   Mostly Cloudy
3:55 AM 6.8 °F -6.9 °F 5.0 °F 92% 30.47 in 10.0 mi NW 9.2 mph - N/A   Mostly Cloudy
4:15 AM 6.8 °F -7.8 °F 5.0 °F 92% 30.47 in 10.0 mi NW 10.4 mph 16.1 mph N/A   Mostly Cloudy
4:35 AM 6.8 °F -6.9 °F 5.0 °F 92% 30.47 in 10.0 mi NW 9.2 mph - N/A   Overcast
4:55 AM 6.8 °F -4.8 °F 3.2 °F 85% 30.46 in 10.0 mi NW 6.9 mph - N/A Snow Light Snow
5:15 AM 5.0 °F -8.1 °F 3.2 °F 92% 30.46 in 10.0 mi NW 8.1 mph - N/A   Overcast
5:35 AM 5.0 °F -5.6 °F 3.2 °F 92% 30.46 in 10.0 mi NW 5.8 mph - N/A   Mostly Cloudy
5:55 AM 5.0 °F -5.6 °F 1.4 °F 85% 30.46 in 10.0 mi North 5.8 mph - N/A   Mostly Cloudy
6:15 AM 5.0 °F -8.1 °F 1.4 °F 85% 30.45 in 10.0 mi NW 8.1 mph - N/A   Mostly Cloudy
6:35 AM 3.2 °F -9.1 °F 1.4 °F 92% 30.45 in 10.0 mi NW 6.9 mph - N/A   Mostly Cloudy
6:55 AM 5.0 °F -9.1 °F 1.4 °F 85% 30.46 in 10.0 mi West 9.2 mph - N/A   Mostly Cloudy
7:15 AM 5.0 °F -11.6 °F 1.4 °F 85% 30.46 in 10.0 mi WNW 12.7 mph 18.4 mph N/A   Mostly Cloudy
7:35 AM 5.0 °F -9.1 °F 1.4 °F 85% 30.45 in 10.0 mi WNW 9.2 mph - N/A   Mostly Cloudy
7:55 AM 3.2 °F -7.8 °F 1.4 °F 92% 30.45 in 10.0 mi West 5.8 mph - N/A   Scattered Clouds
8:15 AM 3.2 °F -9.1 °F -0.4 °F 85% 30.46 in 10.0 mi West 6.9 mph - N/A   Scattered Clouds
8:35 AM 3.2 °F -9.1 °F -0.4 °F 85% 30.46 in 10.0 mi West 6.9 mph - N/A   Partly Cloudy
8:55 AM 5.0 °F -8.1 °F 1.4 °F 85% 30.46 in 10.0 mi West 8.1 mph - N/A   Partly Cloudy
9:15 AM 5.0 °F -5.6 °F 3.2 °F 92% 30.45 in 10.0 mi WNW 5.8 mph - N/A   Scattered Clouds
9:35 AM 5.0 °F -5.6 °F 3.2 °F 92% 30.46 in 10.0 mi WNW 5.8 mph - N/A   Partly Cloudy
9:55 AM 5.0 °F -8.1 °F 3.2 °F 92% 30.45 in 10.0 mi WNW 8.1 mph - N/A   Scattered Clouds
10:15 AM 6.8 °F -4.8 °F 5.0 °F 92% 30.46 in 10.0 mi West 6.9 mph - N/A   Scattered Clouds
10:35 AM 6.8 °F -3.5 °F 5.0 °F 92% 30.46 in 10.0 mi West 5.8 mph - N/A   Scattered Clouds
10:55 AM 8.6 °F -2.6 °F 5.0 °F 85% 30.46 in 10.0 mi WNW 6.9 mph - N/A Snow Light Snow
11:15 AM 8.6 °F -2.6 °F 5.0 °F 85% 30.45 in 10.0 mi West 6.9 mph - N/A   Mostly Cloudy
11:35 AM 10.4 °F 0.8 °F 5.0 °F 79% 30.44 in 10.0 mi WNW 5.8 mph - N/A   Scattered Clouds
11:55 AM 10.4 °F 0.8 °F 6.8 °F 85% 30.43 in 10.0 mi WNW 5.8 mph - N/A   Partly Cloudy
12:15 PM 10.4 °F -0.4 °F 6.8 °F 85% 30.42 in 10.0 mi West 6.9 mph - N/A   Partly Cloudy
12:35 PM 10.4 °F 0.8 °F 6.8 °F 85% 30.41 in 10.0 mi West 5.8 mph - N/A   Clear
12:55 PM 14.0 °F - 6.8 °F 73% 30.39 in 10.0 mi Calm Calm - N/A   Clear
1:15 PM 14.0 °F - 6.8 °F 73% 30.38 in 10.0 mi Calm Calm - N/A   Clear
1:35 PM 14.0 °F 6.5 °F 6.8 °F 73% 30.39 in 10.0 mi SW 4.6 mph - N/A   Clear
1:55 PM 15.8 °F 7.2 °F 8.6 °F 73% 30.39 in 10.0 mi WSW 5.8 mph - N/A   Clear
2:15 PM 14.0 °F 6.5 °F 8.6 °F 79% 30.37 in 10.0 mi SW 4.6 mph - N/A   Clear
2:35 PM 15.8 °F - 8.6 °F 73% 30.35 in 10.0 mi Calm Calm - N/A   Clear
2:55 PM 15.8 °F - 8.6 °F 73% 30.34 in 10.0 mi Calm Calm - N/A   Clear
3:15 PM 15.8 °F 8.6 °F 8.6 °F 73% 30.33 in 10.0 mi South 4.6 mph - N/A   Clear
3:35 PM 15.8 °F 10.2 °F 10.4 °F 79% 30.33 in 10.0 mi SE 3.5 mph - N/A   Clear
3:55 PM 15.8 °F 7.2 °F 10.4 °F 79% 30.33 in 10.0 mi ESE 5.8 mph - N/A   Clear
4:15 PM 15.8 °F 8.6 °F 10.4 °F 79% 30.32 in 10.0 mi ESE 4.6 mph - N/A   Clear
4:35 PM 15.8 °F 7.2 °F 10.4 °F 79% 30.31 in 10.0 mi East 5.8 mph - N/A   Mostly Cloudy
4:55 PM 17.6 °F 9.3 °F 12.2 °F 79% 30.31 in 10.0 mi SE 5.8 mph - N/A   Overcast
5:15 PM 17.6 °F 7.3 °F 14.0 °F 86% 30.29 in 10.0 mi SSE 8.1 mph - N/A   Overcast
5:35 PM 17.6 °F 7.3 °F 14.0 °F 86% 30.28 in 10.0 mi SE 8.1 mph - N/A   Overcast
5:55 PM 15.8 °F 4.2 °F 12.2 °F 86% 30.27 in 10.0 mi ESE 9.2 mph - N/A   Overcast
6:15 PM 15.8 °F 5.1 °F 12.2 °F 86% 30.28 in 10.0 mi SE 8.1 mph - N/A   Overcast
6:35 PM 15.8 °F 4.2 °F 12.2 °F 86% 30.26 in 10.0 mi ESE 9.2 mph - N/A   Overcast
6:55 PM 15.8 °F 4.2 °F 14.0 °F 93% 30.25 in 10.0 mi ESE 9.2 mph - N/A   Overcast
7:15 PM 17.6 °F 5.0 °F 14.0 °F 86% 30.24 in 10.0 mi SE 11.5 mph - N/A   Overcast
7:35 PM 17.6 °F 5.7 °F 14.0 °F 86% 30.24 in 10.0 mi SSE 10.4 mph - N/A   Overcast
7:55 PM 17.6 °F 5.0 °F 14.0 °F 86% 30.22 in 10.0 mi SE 11.5 mph - N/A   Overcast
8:15 PM 17.6 °F 5.0 °F 14.0 °F 86% 30.22 in 10.0 mi SSE 11.5 mph - N/A   Overcast
8:35 PM 17.6 °F 6.4 °F 14.0 °F 86% 30.22 in 10.0 mi SSE 9.2 mph - N/A   Mostly Cloudy
8:55 PM 17.6 °F 4.3 °F 15.8 °F 93% 30.20 in 10.0 mi SSE 12.7 mph - N/A   Overcast
9:15 PM 17.6 °F 3.7 °F 15.8 °F 93% 30.18 in 10.0 mi SE 13.8 mph - N/A   Overcast
9:35 PM 19.4 °F 6.6 °F 15.8 °F 86% 30.17 in 10.0 mi SSE 12.7 mph - N/A   Overcast
9:55 PM 19.4 °F 7.2 °F 15.8 °F 86% 30.15 in 10.0 mi SSE 11.5 mph - N/A   Overcast
10:15 PM 19.4 °F 6.0 °F 15.8 °F 86% 30.13 in 10.0 mi SE 13.8 mph 19.6 mph N/A   Overcast
10:35 PM 19.4 °F 8.6 °F 17.6 °F 93% 30.12 in 10.0 mi SE 9.2 mph - N/A   Overcast
10:55 PM 19.4 °F 8.6 °F 17.6 °F 93% 30.11 in 10.0 mi SSE 9.2 mph - N/A   Overcast
11:15 PM 19.4 °F 7.2 °F 17.6 °F 93% 30.09 in 10.0 mi SSE 11.5 mph - N/A   Overcast
11:35 PM 21.2 °F 10.9 °F 17.6 °F 86% 30.07 in 10.0 mi SSE 9.2 mph - N/A   Overcast
11:55 PM 21.2 °F 10.9 °F 17.6 °F 86% 30.06 in 10.0 mi SSE 9.2 mph - N/A   Overcast